Location: Aiyede
(8.4833°N, 4.4500°E)
Time: 09:17:53
(UTC+00:00)

Cosmos 1300 Rocket - Pass Details

Date: 24 September 2020
Orbit: 602 x 626 km, 82.5° (Epoch: 21 October)

Event Time Altitude Azimuth Distance (km) Brightness Sun altitude
Rises 18:02:30 0° 181° (S) 2,868 7.0 -7.2°
Reaches altitude 10° 18:04:42 10° 180° (S) 1,967 6.1 -7.7°
Maximum altitude 18:09:03 77° 94° (E) 634 3.5 -8.8°
Drops below altitude 10° 18:13:26 10° 8° (N) 1,979 6.1 -9.9°
Sets 18:15:40 0° 7° (N) 2,888 6.9 -10.4°
